Find Starlink 35272

NORAD ID: 65899 Int'l Des: 2025-224 Owner: SPXS Country: US Constellation: starlink operational
LEOCIRCULAR

Live-Position

3D-Globus wird geladen...

Über Starlink 35272

Beschreibung wird geladen...

Nächste Überflüge

Passes for default location (London). Set your location on the main map for personalized predictions.

Höhenverlauf

Loading altitude history...

Zweizeiliger Elementsatz

1 65899U 25224T 26105.56330879 .00005780 00000-0 20711-3 0 9991
2 65899 53.1586 199.7941 0001115 76.2135 283.8990 15.30200571 30511
Epoch: 15. Apr. 2026 • Age: 18 hours

Aktueller Status

Höhe 477.4 km
Geschwindigkeit 7.63 km/s
Subsatellitenpunkt -6.29°S, 62.85°E
Startdatum 7. Okt. 2025
Alter 0.5 years
Typ internet

Technische Details

Klassifizierung Payload
Masse 575.00 kg
Trockenmasse 530.00 kg
Gesamtmasse 575.00 kg
Länge 0.30 m
Durchmesser 4.10 m
Spannweite 29.00 m
Form Box + pan
Hersteller SPXS
Bus-Typ Starlink V2MO
Phasenstatus In Orbit
Besitzer/Staat SPXS/US

Most Searched